OpenBCM V1.08-3-g9b42 (Linux)

Packet Radio Mailbox

OK0NBR

[Sao_Jose_dos_Campo]

 Login: GUEST





  
I0OJJ  > KEPS     27.11.25 02:33l 308 Lines 14709 Bytes #208 (0) @ AMSAT
BID : ORB25331.1
Read: GUEST
Subj: 2Line Orbital Elements 25331.AMSAT
Path: OK0NBR<IW0QNL<HB9ON<DK0WUE<ZL2BAU<VK3AT<N6CTA<VE3VTY<VE3CGR<CX2SA<
      EA2RCF<I0OJJ
Sent: 251127/0021z @:I0OJJ.ITA.EU [Rome] obcm1.08-11-2-gbfe9
From: I0OJJ @ I0OJJ.ITA.EU (Gustavo)
To:   KEPS @ AMSAT
X-Info: This message was generated automatically


QST de W1STR

AMSAT Orbital Elements for Amateur Satellites in TLE Format
From Orbital Analysis Office
New England Sci-Tech STEM Education Center
Natick MA November 27, 2025
To all radio amateurs


These element sets describe the orbits of various satellites 
in use by the amateur radio community. For details see:
www.amsat.org/keplerian-elements-formats/

A daily update of element sets is available at:
www.amsat.org/tle/daily-bulletin.txt
or without bulletin text:
www.amsat.org/tle/dailytle.txt


AO-07
1 07530U 74089B   25330.62819064 -.00000037  00000-0  61034-4 0  9991
2 07530 101.9972 336.7263 0012261 156.9133 319.6959 12.53693672335137
UO-11
1 14781U 84021B   25330.47566441  .00001682  00000-0  17985-3 0  9996
2 14781  97.7794 293.7601 0008853 126.9354 233.2676 14.90059115226934
AO-27
1 22825U 93061C   25330.70559582  .00000165  00000-0  80035-4 0  9994
2 22825  98.7166  32.9332 0007921 341.7647  18.3250 14.30867985678046
FO-29
1 24278U 96046B   25330.65491170 -.00000033  00000-0  51581-5 0  9996
2 24278  98.5472 201.9475 0348829 261.8059  94.3385 13.53261276445778
GO-32
1 25397U 98043D   25330.55025838  .00000117  00000-0  70846-4 0  9997
2 25397  98.9911 313.3899 0002320  83.2594 276.8848 14.24370175422486
ISS
1 25544U 98067A   25330.73812712  .00011313  00000-0  21242-3 0  9997
2 25544  51.6309 221.6882 0003815 171.0984 189.0072 15.49104478540371
NO-44
1 26931U 01043C   25330.60069804  .00000238  00000-0  12003-3 0  9997
2 26931  67.0521  48.2146 0007372 271.0433  88.9824 14.31841474261441
SO-50
1 27607U 02058C   25330.61397937  .00002150  00000-0  27521-3 0  9993
2 27607  64.5548  35.4354 0071359 299.5797  59.8209 14.82293111234423
CO-55
1 27844U 03031E   25330.50134956  .00000429  00000-0  20533-3 0  9999
2 27844  98.6770 336.6138 0010503  57.9020 302.3177 14.24158555162828
CO-57
1 27848U 03031J   25330.53028316  .00000377  00000-0  18523-3 0  9996
2 27848  98.6800 336.5175 0010556  73.7888 286.4451 14.23469888162541
RS-22
1 27939U 03042A   25330.89605852  .00001685  00000-0  27113-3 0  9992
2 27939  98.3366 144.6757 0011184 184.6844 311.7292 14.72901361185767
CO-58
1 28895U 05043F   25330.39776500  .00002383  00000-0  38911-3 0  9995
2 28895  98.2716 117.2009 0015188 126.6899 233.5705 14.71800889 71910
CO-65
1 32785U 08021C   25330.83473499  .00006880  00000-0  46640-3 0  9991
2 32785  97.8070 303.7029 0009747   8.1019 352.0363 15.06746760954695
CO-66
1 32791U 08021J   25330.49794187  .00017923  00000-0  73176-3 0  9994
2 32791  97.7446 315.0954 0002149 351.0649   9.0549 15.24463709956325
RS-30
1 32953U 08025A   25330.85631679  .00000048  00000-0  27336-3 0  9991
2 32953  82.5002 121.3018 0019509  35.4848 324.7525 12.43171399794551
SRMSAT
1 37841U 11058D   25330.35480331  .00000450  00000-0  10071-3 0  9999
2 37841  19.9706 207.1224 0011864 132.5023  22.9076 14.11503376729129
ZACUBE-1
1 39417U 13066B   25330.83755497  .00007156  00000-0  58762-3 0  9991
2 39417  97.8046 287.3608 0040944 199.0264 160.9431 14.98844764650398
Delfi-N3xt
1 39428U 13066N   25330.77575964  .00009003  00000-0  85115-3 0  9990
2 39428  97.8324 246.7774 0080074 157.5270 202.9488 14.91477662644413
GOMX-1
1 39430U 13066Q   25330.82163007  .00002761  00000-0  42604-3 0  9990
2 39430  97.6606 178.9424 0131015   7.7328 352.5857 14.68472469640206
LO-74
1 39440U 13066AA  25330.77588509  .00006910  00000-0  66921-3 0  9991
2 39440  97.8686 274.4728 0059635 339.5791  20.3044 14.91706679646790
AO-73
1 39444U 13066AE  25330.37382134  .00009302  00000-0  63860-3 0  9994
2 39444  97.8059 293.4586 0039231 169.6417 190.5626 15.05575341649108
DTUSAT-2
1 40030U 14033W   25330.51699588  .00008861  00000-0  52916-3 0  9991
2 40030  98.0750 311.0762 0007525 193.4916 166.6112 15.11344264622037
EO-80
1 40032U 14033Y   25330.46224137  .00008652  00000-0  51570-3 0  9994
2 40032  98.0634 310.4353 0009134 134.2820 225.9160 15.11412533622008
LILACSAT-2
1 40908U 15049K   25330.86179757  .00018002  00000-0  39559-3 0  9998
2 40908  97.4933 355.7620 0006203 267.2953  92.7585 15.44054853564450
IO-86
1 40931U 15052B   25151.18580175  .00001241  00000-0  78118-4 0  9996
2 40931   6.0006  24.0987 0012733 338.8432  21.1169 14.78805930523159
Horyu-4
1 41340U 16012D   25330.64499766  .00053860  00000-0  96429-3 0  9991
2 41340  30.9945  60.3155 0006053  73.6047 286.5266 15.48667514539059
Lapan A3
1 41603U 16040E   25330.88259661  .00004901  00000-0  16392-3 0  9991
2 41603  97.1432 329.0182 0011616  30.1237 330.0671 15.31369688523839
CAS-2T
1 41847U 16066G   25330.75682041  .00001279  00000-0  18869-3 0  9993
2 41847  98.4052  43.6527 0344475  23.5854 338.0712 14.44077443475575
TechnoSat
1 42829U 17042E   25330.48736921  .00004017  00000-0  29994-3 0  9990
2 42829  97.4020 131.3991 0019514  66.8439 293.4840 15.03215686456239
AO-91
1 43017U 17073E   25330.39419438  .00013546  00000-0  64622-3 0  9999
2 43017  97.4950 196.9659 0161438 307.0126  51.6422 15.08334216434776
S-Net D
1 43186U 18014G   25330.69574602  .00007728  00000-0  42814-3 0  9994
2 43186  97.5476 231.9166 0009149  11.2261 348.9173 15.14053599428096
S-Net B
1 43187U 18014H   25330.70354825  .00007359  00000-0  40810-3 0  9994
2 43187  97.5482 231.9039 0009679   6.3671 353.7681 15.14030095428095
S-Net A
1 43188U 18014J   25330.69552139  .00007751  00000-0  42932-3 0  9994
2 43188  97.5493 232.0696 0009615   6.5700 353.5656 15.14059591428096
S-Net C
1 43189U 18014K   25330.70646262  .00007267  00000-0  40303-3 0  9990
2 43189  97.5510 232.1234 0010761 358.4579   1.6617 15.14024975426648
Ten-Koh
1 43677U 18084G   25330.45370997  .00004375  00000-0  34164-3 0  9995
2 43677  98.0714 149.4187 0009303  69.2500 290.9720 15.01652701385721
PO-101
1 43678U 18084H   25330.83570078  .00003025  00000-0  25281-3 0  9991
2 43678  98.1034 153.6602 0007290  84.8881 275.3173 14.99316025385883
QO-100
1 43700U 18090A   25330.80079029  .00000164  00000-0  00000+0 0  9990
2 43700   0.0151 281.1862 0002501   3.9385  94.9797  1.00272337 25644
MinXSS-2
1 43758U 18099A   25330.70751291  .00027397  00000-0  84867-3 0  9993
2 43758  97.4815  37.8676 0008850 274.2346  85.7884 15.33381650382962
AO-95
1 43770U 18099N   25330.61531043  .00014345  00000-0  64236-3 0  9995
2 43770  97.4693  27.0225 0009287 348.9438  11.1592 15.21332918382360
SNUSat 2
1 43782U 18099AA  25330.64113583  .00011318  00000-0  56135-3 0  9992
2 43782  97.4375  22.3268 0009760 285.7062  74.3095 15.17844319382268
SnugLite
1 43784U 18099AC  25330.67228329  .00014447  00000-0  64036-3 0  9997
2 43784  97.4186  22.3487 0001657 292.3041  67.8019 15.21714653382468
ITASat 1
1 43786U 18099AE  25330.65746997  .00008864  00000-0  46761-3 0  9994
2 43786  97.4345  21.3067 0012952 344.5841  15.4995 15.15712298382196
EAGLET 1
1 43790U 18099AJ  25330.61248230  .00006349  00000-0  38467-3 0  9992
2 43790  97.4543  20.5652 0010722 332.4325  27.6336 15.10880937381721
ESEO
1 43792U 18099AL  25330.70818718  .00002164  00000-0  16331-3 0  9995
2 43792  97.4272  11.5469 0010307 311.1885  48.8452 15.03394564381375
JO-97
1 43803U 18099AX  25330.68950116  .00018781  00000-0  72950-3 0  9995
2 43803  97.4443  28.5650 0005243 268.0536  92.0101 15.26107459382669
Suomi 100
1 43804U 18099AY  25330.68988227  .00015009  00000-0  64528-3 0  9992
2 43804  97.4503  27.2812 0009724 274.4246  85.5879 15.22707772382546
ISAT
1 43879U 18111D   25330.76254601  .00042703  00000-0  10607-2 0  9999
2 43879  97.5895 249.8434 0005628 343.7973  16.3091 15.40190461379782
UWE-4
1 43880U 18111E   25330.71517502  .00028855  00000-0  89532-3 0  9994
2 43880  97.5840 246.8104 0009670 346.2901  13.8076 15.33311648379627
Sparrow
1 43881U 18111F   25330.76964997  .00046327  00000-0  10731-2 0  9992
2 43881  97.6079 253.5106 0006579  24.4311 335.7246 15.42278904379908
Prox-1
1 44339U 19036A   25330.44506148  .00015444  00000-0  17540-2 0  9994
2 44339  23.9973  22.6341 0006779 206.4032 153.6121 14.84568641343244
Taurus 1
1 44530U 19059C   25330.83201811  .00009464  00000-0  16298-2 0  9998
2 44530  98.6229 118.8141 0009081 223.0859 136.9634 14.68756918328904
Duchifat 3
1 44854U 19089C   25330.12612882  .00558916  12072-3  17843-2 0  9999
2 44854  36.9290 337.3412 0009717 169.2189 190.8791 15.90003340329485
TO-108
1 44881U 19093C   25330.81001904  .00001299  00000-0  15432-3 0  9992
2 44881  97.7777  42.7968 0014493  37.5711 322.6514 14.86048739321359
FloripaSat 1
1 44885U 19093G   25330.84560648  .00008017  00000-0  63247-3 0  9996
2 44885  97.8054  58.9657 0011797  26.0613 334.1202 15.00950612322266
RS-44
1 44909U 19096E   25330.75241352  .00000029  00000-0  78276-4 0  9998
2 44909  82.5190 114.2322 0216573 257.6049 100.0738 12.79745574276459
SALSAT
1 46495U 20068K   25330.53314647  .00010488  00000-0  41131-3 0  9994
2 46495  97.8781 316.9375 0008852 298.4127  61.6218 15.25922034284416
CSS (TIANHE-1)
1 48274U 21035A   25330.76049338  .00023599  00000-0  30515-3 0  9994
2 48274  41.4669 113.6485 0010761 276.2599  83.7013 15.58310216261531
TUBIN
1 48900U 21059X   25330.81855615  .00399049  66528-4  97272-3 0  9995
2 48900  97.6654 156.8784 0002521 311.0333  49.0725 15.96214059246778
CUTE
1 49263U 21088D   25330.78185014  .00057753  00000-0  78642-3 0  9997
2 49263  97.4360  52.9312 0004994 339.3868  20.7185 15.57356718230818
TeikyoSat 4
1 49396U 21102B   25330.68307830  .00002648  00000-0  17335-3 0  9997
2 49396  97.3919   2.8852 0010482 270.1500  89.8528 15.08535060222184
